TimeMST,TemperatureF,Dew PointF,Humidity,Sea Level PressureIn,VisibilityMPH,Wind Direction,Wind SpeedMPH,Gust SpeedMPH,PrecipitationIn,Events,Conditions,WindDirDegrees,DateUTC
12:53 AM,28.0,12.9,53,29.47,10.0,South,11.5,-,N/A,,Overcast,170,2013-02-20 07:53:00
1:53 AM,27.0,14.0,58,29.44,10.0,SSE,9.2,-,N/A,,Clear,150,2013-02-20 08:53:00
2:53 AM,27.0,18.0,69,29.43,8.0,South,11.5,-,0.00,Snow,Light Snow,170,2013-02-20 09:53:00
3:31 AM,26.6,21.2,80,29.53,3.0,South,12.7,18.4,0.00,Snow,Light Snow,170,2013-02-20 10:31:00
3:38 AM,24.8,21.2,86,29.53,2.5,SSE,13.8,-,0.00,Snow,Light Snow,160,2013-02-20 10:38:00
3:53 AM,25.0,21.0,85,29.42,5.0,SSE,9.2,-,0.00,Snow,Light Snow,160,2013-02-20 10:53:00
4:01 AM,24.8,21.2,86,29.52,8.0,SSE,9.2,-,0.00,Snow,Light Snow,160,2013-02-20 11:01:00
4:31 AM,24.8,21.2,86,29.51,2.0,South,11.5,-,0.00,Snow,Light Snow,180,2013-02-20 11:31:00
4:53 AM,25.0,21.9,88,29.42,1.2,SSE,13.8,-,0.00,Snow,Light Snow,160,2013-02-20 11:53:00
5:02 AM,24.8,23.0,93,29.52,0.8,SSE,16.1,-,0.00,Snow,Light Snow,150,2013-02-20 12:02:00
5:17 AM,24.8,23.0,93,29.52,0.5,SE,12.7,-,0.00,Fog-Snow,Snow,140,2013-02-20 12:17:00
5:42 AM,24.8,23.0,93,29.52,0.5,SE,10.4,-,0.02,Fog-Snow,Snow,130,2013-02-20 12:42:00
5:49 AM,24.8,21.2,86,29.52,0.8,SSE,10.4,-,0.02,Snow,Light Snow,150,2013-02-20 12:49:00
5:53 AM,24.1,21.9,91,29.44,1.2,SSE,9.2,-,0.02,Snow,Light Snow,150,2013-02-20 12:53:00
6:03 AM,24.8,21.2,86,29.52,1.2,SSE,6.9,-,0.00,Snow,Light Snow,150,2013-02-20 13:03:00
6:53 AM,24.1,21.9,91,29.44,1.0,ESE,10.4,-,0.02,Snow,Light Snow,120,2013-02-20 13:53:00
7:04 AM,24.8,21.2,86,29.52,1.5,SE,12.7,-,0.00,Snow,Light Snow,130,2013-02-20 14:04:00
7:14 AM,24.8,21.2,86,29.52,0.5,SE,12.7,-,0.01,Fog-Snow,Snow,130,2013-02-20 14:14:00
7:23 AM,23.0,21.2,93,29.52,0.8,SE,10.4,-,0.01,Snow,Light Snow,130,2013-02-20 14:23:00
7:49 AM,24.8,21.2,86,29.53,1.0,SE,11.5,-,0.02,Snow,Light Snow,130,2013-02-20 14:49:00
7:53 AM,23.0,21.9,96,29.48,1.8,SE,11.5,-,0.02,Snow,Light Snow,130,2013-02-20 14:53:00
8:07 AM,23.0,21.2,93,29.54,1.0,SE,11.5,-,0.00,Snow,Light Snow,130,2013-02-20 15:07:00
8:09 AM,23.0,21.2,93,29.54,0.8,SE,10.4,-,0.00,Snow,Light Snow,130,2013-02-20 15:09:00
8:20 AM,23.0,21.2,93,29.54,0.5,SE,9.2,-,0.00,Fog-Snow,Light Snow,140,2013-02-20 15:20:00
8:25 AM,23.0,21.2,93,29.55,1.5,SE,9.2,-,0.00,Snow,Light Snow,140,2013-02-20 15:25:00
8:33 AM,23.0,21.2,93,29.55,2.5,SE,9.2,-,0.00,Snow,Light Snow,130,2013-02-20 15:33:00
8:41 AM,23.0,21.2,93,29.55,3.0,SE,8.1,-,0.00,Snow,Light Snow,140,2013-02-20 15:41:00
8:53 AM,23.0,21.9,96,29.49,9.0,SE,10.4,-,0.00,,Overcast,130,2013-02-20 15:53:00
9:21 AM,23.0,21.2,93,29.55,10.0,SE,8.1,-,N/A,,Overcast,130,2013-02-20 16:21:00
9:53 AM,24.1,21.0,88,29.52,9.0,ESE,5.8,-,0.01,Snow,Light Snow,120,2013-02-20 16:53:00
10:05 AM,24.8,21.2,86,29.57,10.0,ESE,4.6,-,N/A,,Scattered Clouds,120,2013-02-20 17:05:00
10:53 AM,27.0,19.9,75,29.50,10.0,East,3.5,-,N/A,,Scattered Clouds,80,2013-02-20 17:53:00
11:21 AM,26.6,21.2,80,29.58,1.8,SSE,8.1,-,0.00,Snow,Light Snow,150,2013-02-20 18:21:00
11:40 AM,24.8,21.2,86,29.58,0.8,Calm,Calm,-,0.00,Snow,Light Snow,0,2013-02-20 18:40:00
11:50 AM,26.6,19.4,74,29.58,1.5,Calm,Calm,-,0.00,Snow,Light Snow,0,2013-02-20 18:50:00
11:53 AM,28.0,21.0,75,29.50,2.0,Calm,Calm,-,0.00,Snow,Light Snow,0,2013-02-20 18:53:00
12:01 PM,26.6,19.4,74,29.58,7.0,Calm,Calm,-,0.00,Snow,Light Snow,0,2013-02-20 19:01:00
12:53 PM,28.0,18.0,66,29.49,10.0,ESE,3.5,-,0.00,,Clear,120,2013-02-20 19:53:00
1:53 PM,27.0,21.9,81,29.49,10.0,WSW,5.8,-,N/A,,Clear,240,2013-02-20 20:53:00
2:11 PM,26.6,21.2,80,29.56,10.0,WSW,8.1,-,N/A,,Mostly Cloudy,240,2013-02-20 21:11:00
2:38 PM,28.4,19.4,69,29.56,10.0,SW,5.8,-,N/A,,Scattered Clouds,230,2013-02-20 21:38:00
2:53 PM,28.0,19.0,69,29.48,10.0,SW,3.5,-,N/A,,Clear,230,2013-02-20 21:53:00
3:53 PM,30.0,17.1,59,29.48,10.0,Calm,Calm,-,N/A,,Clear,0,2013-02-20 22:53:00
4:50 PM,28.4,23.0,80,29.57,1.5,NNW,15.0,20.7,0.00,Snow,Light Snow,330,2013-02-20 23:50:00
4:53 PM,28.0,23.0,81,29.50,1.0,NNW,12.7,20.7,0.00,Snow,Light Snow,330,2013-02-20 23:53:00
5:09 PM,28.4,23.0,80,29.58,1.8,NW,11.5,-,0.00,Snow,Light Snow,320,2013-02-21 00:09:00
5:19 PM,28.4,23.0,80,29.58,3.0,NNW,12.7,-,0.00,Snow,Light Snow,330,2013-02-21 00:19:00
5:22 PM,26.6,23.0,86,29.58,1.8,NW,12.7,-,0.00,Snow,Light Snow,320,2013-02-21 00:22:00
5:38 PM,28.4,21.2,74,29.58,3.0,NW,12.7,-,0.00,Snow,Light Snow,310,2013-02-21 00:38:00
5:49 PM,28.4,21.2,74,29.59,10.0,NW,11.5,-,0.00,,Overcast,320,2013-02-21 00:49:00
5:53 PM,27.0,21.9,81,29.53,10.0,NW,9.2,-,0.00,,Overcast,310,2013-02-21 00:53:00
6:53 PM,26.1,21.9,84,29.57,10.0,NW,11.5,-,N/A,,Overcast,310,2013-02-21 01:53:00
7:26 PM,26.6,21.2,80,29.62,9.0,NW,11.5,-,0.00,,Overcast,310,2013-02-21 02:26:00
7:37 PM,24.8,21.2,86,29.63,5.0,NW,10.4,-,0.00,Snow,Light Snow,320,2013-02-21 02:37:00
7:45 PM,24.8,21.2,86,29.63,1.8,WNW,10.4,-,0.00,Snow,Light Snow,300,2013-02-21 02:45:00
7:53 PM,25.0,21.9,88,29.60,1.2,NW,13.8,-,0.01,Snow,Light Snow,310,2013-02-21 02:53:00
8:22 PM,24.8,21.2,86,29.64,3.0,WNW,15.0,-,0.00,Snow,Light Snow,300,2013-02-21 03:22:00
8:34 PM,24.8,19.4,80,29.64,10.0,WNW,15.0,-,0.00,,Mostly Cloudy,300,2013-02-21 03:34:00
8:53 PM,24.1,19.9,84,29.61,10.0,WNW,11.5,-,0.00,,Mostly Cloudy,300,2013-02-21 03:53:00
9:53 PM,24.1,19.9,84,29.64,10.0,WNW,11.5,-,N/A,,Mostly Cloudy,290,2013-02-21 04:53:00
10:53 PM,23.0,19.0,85,29.64,10.0,WNW,11.5,-,N/A,,Scattered Clouds,300,2013-02-21 05:53:00
11:35 PM,21.2,19.4,93,29.69,10.0,WNW,9.2,-,N/A,,Partly Cloudy,300,2013-02-21 06:35:00
11:53 PM,21.9,19.0,89,29.65,10.0,WNW,11.5,-,N/A,,Mostly Cloudy,290,2013-02-21 06:53:00